Location: Dal�� Lhota
(48.7500°N, 14.0167°E)
Time: 01:05:09
(UTC+00:00)

Vanguard 3 - Pass Details

Date: 02 August 2021
Orbit: 510 x 3260 km, 33.3° (Epoch: 16 September)

Event Time Altitude Azimuth Distance (km) Brightness Sun altitude
Rises 23:29:08 0° 275° (W) 7,177 12.0 -23.6°
Reaches altitude 10° 23:36:45 10° 259° (W) 6,194 11.4 -23.5°
Maximum altitude 23:46:38 17° 228° (SW) 5,401 10.9 -23.3°
Enters shadow 23:47:20 16° 226° (SW) 5,375 10.8 -23.2°
Drops below altitude 10° 23:55:33 10° 197° (SSW) 5,466 - -23.0°
Sets 00:01:39 0° 178° (S) 5,996 - -22.8°
